FW5122 Weather Reports


Display with metric or nautical units.
time (UTC)temp
F
wind
direction
speed
MPH
gust
MPH
rain 1hr
in
rain 24hr
in
rain mn
in
humidity
%
barometer
mb
20260503012930 69 14 0.0 0.0 0.00 0.00 0.00 45 1019.6
20260503011531 70 14 0.0 4.0 0.00 0.00 0.00 44 1019.6
20260503010831 71 14 0.0 4.0 0.00 0.00 0.00 43 1019.2
20260503010131 71 14 0.0 4.0 0.00 0.00 0.00 42 1019.2
20260503005431 72 14 0.0 4.0 0.00 0.00 0.00 41 1019.6
20260503004030 73 13 0.0 4.0 0.00 0.00 0.00 40 1019.2
20260503003330 74 9 0.0 4.0 0.00 0.00 0.00 38 1019.2
20260503001931 74 16 2.0 6.0 0.00 0.00 0.00 37 1019.2
20260503001230 75 6 0.0 6.0 0.00 0.00 0.00 37 1019.2
20260503000533 75 0 0.0 6.0 0.00 0.00 0.00 37 1019.2
20260502235831 75 336 5.0 6.0 0.00 0.00 0.00 37 1019.2
20260502235133 75 6 0.0 6.0 0.00 0.00 0.00 37 1019.2
20260502234433 75 6 2.0 6.0 0.00 0.00 0.00 37 1019.2
20260502233033 75 11 0.0 10.0 0.00 0.00 0.00 37 1019.2
20260502232333 75 24 5.0 10.0 0.00 0.00 0.00 36 1019.6
20260502231633 75 6 5.0 10.0 0.00 0.00 0.00 37 1019.2
20260502230233 75 5 2.0 10.0 0.00 0.00 0.00 36 1019.2
20260502225533 75 350 8.0 10.0 0.00 0.00 0.00 37 1019.6
20260502224833 75 346 14.0 10.0 0.00 0.00 0.00 36 1019.2
20260502224133 75 343 5.0 10.0 0.00 0.00 0.00 37 1019.6
20260502223434 75 10 5.0 10.0 0.00 0.00 0.00 36 1019.6
20260502222733 75 341 5.0 10.0 0.00 0.00 0.00 37 1019.6
20260502222033 75 359 5.0 10.0 0.00 0.00 0.00 37 1019.2
20260502221333 75 8 0.0 10.0 0.00 0.00 0.00 36 1019.6
20260502220633 76 24 5.0 10.0 0.00 0.00 0.00 36 1019.6
20260502215935 77 37 5.0 10.0 0.00 0.00 0.00 35 1019.6
20260502215236 77 7 8.0 10.0 0.00 0.00 0.00 37 1019.9
20260502213833 77 65 5.0 10.0 0.00 0.00 0.00 38 1019.9
20260502213133 77 12 5.0 10.0 0.00 0.00 0.00 38 1019.9
20260502212433 77 341 11.0 10.0 0.00 0.00 0.00 37 1019.9
20260502211733 77 4 8.0 10.0 0.00 0.00 0.00 37 1020.2
20260502211032 77 16 2.0 10.0 0.00 0.00 0.00 34 1019.9
20260502210333 78 2 8.0 10.0 0.00 0.00 0.00 39 1020.2
20260502205633 78 4 2.0 10.0 0.00 0.00 0.00 35 1020.2
20260502204933 79 26 5.0 8.0 0.00 0.00 0.00 35 1020.2
20260502204233 79 4 2.0 8.0 0.00 0.00 0.00 35 1020.2
20260502203533 79 336 8.0 8.0 0.00 0.00 0.00 34 1020.2
20260502202132 79 6 2.0 8.0 0.00 0.00 0.00 35 1020.9
20260502201432 79 347 8.0 8.0 0.00 0.00 0.00 35 1020.9
20260502200033 78 3 5.0 8.0 0.00 0.00 0.00 36 1020.9
20260502195333 78 342 0.0 8.0 0.00 0.00 0.00 35 1021.2
20260502193932 77 347 5.0 10.0 0.00 0.00 0.00 38 1021.2
20260502193233 77 346 5.0 10.0 0.00 0.00 0.00 37 1021.2
20260502192532 77 358 5.0 10.0 0.00 0.00 0.00 37 1021.2
20260502191832 77 13 5.0 10.0 0.00 0.00 0.00 37 1021.2
20260502185732 77 5 5.0 10.0 0.00 0.00 0.00 36 1021.6
20260502185032 76 8 2.0 8.0 0.00 0.00 0.00 37 1021.6
20260502184332 77 8 2.0 8.0 0.00 0.00 0.00 39 1021.6
20260502183632 76 356 8.0 8.0 0.00 0.00 0.00 39 1021.9
20260502182933 76 336 0.0 8.0 0.00 0.00 0.00 36 1021.6
20260502182233 76 350 5.0 8.0 0.00 0.00 0.00 40 1021.9
20260502181532 75 6 11.0 8.0 0.00 0.00 0.00 40 1021.9
20260502180832 76 9 0.0 6.0 0.00 0.00 0.00 41 1022.3
20260502180133 76 8 5.0 6.0 0.00 0.00 0.00 38 1022.3
20260502163732 73 359 5.0 6.0 0.00 0.00 0.00 49 1022.9
20260502163032 73 345 5.0 6.0 0.00 0.00 0.00 47 1022.9
20260502162332 73 17 2.0 6.0 0.00 0.00 0.00 47 1022.9
20260502161633 72 1 5.0 6.0 0.00 0.00 0.00 53 1022.9
20260502160933 72 12 2.0 6.0 0.00 0.00 0.00 53 1022.9
20260502160232 72 1 2.0 6.0 0.00 0.00 0.00 53 1022.9
20260502152032 67 7 2.0 6.0 0.00 0.00 0.00 62 1022.6
20260502151332 66 27 5.0 6.0 0.00 0.00 0.00 64 1022.6
20260502150632 65 344 0.0 6.0 0.00 0.00 0.00 64 1022.9
20260502130732 55 356 0.0 4.0 0.00 0.00 0.00 84 1021.9
20260502122732 52 2 0.0 0.0 0.00 0.00 0.00 85 1021.2
20260502122032 52 3 0.0 0.0 0.00 0.00 0.00 85 1021.2
20260502121332 52 3 0.0 0.0 0.00 0.00 0.00 84 1021.2
20260502120632 53 3 0.0 0.0 0.00 0.00 0.00 84 1021.2
20260502115932 52 2 0.0 0.0 0.00 0.00 0.00 84 1020.9
20260502114531 53 3 0.0 0.0 0.00 0.00 0.00 84 1020.6
20260502113131 53 2 0.0 0.0 0.00 0.00 0.00 85 1020.2
20260502112432 52 3 0.0 0.0 0.00 0.00 0.00 85 1020.2
20260502111733 52 3 0.0 0.0 0.00 0.00 0.00 85 1020.2
20260502110332 52 3 0.0 0.0 0.00 0.00 0.00 85 1019.9
20260502105632 52 3 0.0 0.0 0.00 0.00 0.00 85 1019.9
20260502104932 52 3 0.0 0.0 0.00 0.00 0.00 84 1019.9
20260502104233 52 3 0.0 0.0 0.00 0.00 0.00 85 1020.2
20260502103531 51 3 0.0 0.0 0.00 0.00 0.00 84 1020.2
20260502102832 52 3 0.0 0.0 0.00 0.00 0.00 84 1019.9
20260502102132 52 3 0.0 0.0 0.00 0.00 0.00 84 1020.2
20260502100731 52 3 0.0 0.0 0.00 0.00 0.00 84 1019.9
20260502091131 52 3 0.0 0.0 0.00 0.00 0.00 85 1019.6
20260502090433 52 4 0.0 0.0 0.00 0.00 0.00 85 1019.6
20260502071231 52 5 0.0 0.0 0.00 0.00 0.00 84 1019.9
20260502070531 53 5 0.0 0.0 0.00 0.00 0.00 83 1019.6
20260502065831 53 5 0.0 0.0 0.00 0.00 0.00 83 1019.9
20260502065131 53 11 0.0 0.0 0.00 0.00 0.00 83 1019.9
20260502064431 53 11 0.0 0.0 0.00 0.00 0.00 83 1019.9
20260502063731 53 11 0.0 0.0 0.00 0.00 0.00 83 1019.6
20260502063032 53 11 0.0 0.0 0.00 0.00 0.00 82 1019.9
20260502061631 54 11 0.0 0.0 0.00 0.00 0.00 82 1019.9
20260502060933 54 11 0.0 0.0 0.00 0.00 0.00 81 1019.9
20260502054831 54 11 0.0 0.0 0.00 0.00 0.00 80 1019.6
20260502054132 54 11 0.0 0.0 0.00 0.00 0.00 80 1019.9
20260502053431 55 11 0.0 0.0 0.00 0.00 0.00 80 1019.6
20260502052732 55 11 0.0 0.0 0.00 0.00 0.00 79 1019.9
20260502052031 55 11 0.0 0.0 0.00 0.00 0.00 78 1019.6
20260502051331 55 11 0.0 0.0 0.00 0.00 0.00 78 1019.6
20260502050631 55 10 0.0 0.0 0.00 0.00 0.00 77 1019.6
20260502045931 56 10 0.0 0.0 0.00 0.00 0.00 77 1019.9
20260502045232 56 10 0.0 0.0 0.00 0.00 0.00 76 1019.9
20260502044534 56 10 0.0 0.0 0.00 0.00 0.00 76 1019.6
20260502043834 56 10 0.0 0.0 0.00 0.00 0.00 76 1019.6
20260502042431 57 9 0.0 0.0 0.00 0.00 0.00 75 1019.9
20260502041731 57 9 0.0 0.0 0.00 0.00 0.00 75 1019.6
20260502041032 57 9 0.0 0.0 0.00 0.00 0.00 75 1019.6
20260502040332 58 10 0.0 0.0 0.00 0.00 0.00 74 1019.2
20260502035631 58 10 0.0 0.0 0.00 0.00 0.00 74 1019.6
20260502034931 58 10 0.0 0.0 0.00 0.00 0.00 74 1019.6
20260502034231 58 10 0.0 0.0 0.00 0.00 0.00 74 1019.6
20260502033531 58 6 0.0 0.0 0.00 0.00 0.00 73 1019.6
20260502032831 58 6 0.0 0.0 0.00 0.00 0.00 73 1019.6
20260502032131 59 6 0.0 0.0 0.00 0.00 0.00 73 1019.2
20260502031431 59 5 0.0 0.0 0.00 0.00 0.00 73 1019.2
20260502030031 59 10 0.0 0.0 0.00 0.00 0.00 73 1019.2
20260502024631 59 10 0.0 0.0 0.00 0.00 0.00 73 1019.2
20260502023931 59 10 0.0 0.0 0.00 0.00 0.00 73 1018.5
20260502023231 59 10 0.0 0.0 0.00 0.00 0.00 73 1019.2
20260502022530 59 10 0.0 0.0 0.00 0.00 0.00 72 1018.9
20260502020431 60 10 0.0 4.0 0.00 0.00 0.00 72 1018.5
20260502015731 60 10 0.0 4.0 0.00 0.00 0.00 71 1018.5
20260502015030 60 10 0.0 4.0 0.00 0.00 0.00 71 1018.2
20260502014330 60 10 0.0 4.0 0.00 0.00 0.00 71 1018.2
20260502013631 60 10 0.0 4.0 0.00 0.00 0.00 70 1018.2